Location: Acts Church of Fort Worth
(32.6786°N, 97.2668°W)
Time: 01:29:29
(UTC+00:00)

Daily predictions for brighter satellites

Satellite Brightness Start Highest point End
(mag) Time Altitude Azimuth Time Altitude Azimuth Time Altitude Azimuth
USA 238 DEB 4.3 00:00:35 10° NNW 00:07:59 50° NE 00:15:52 10° SE
USA 238 4.3 00:00:42 10° NNW 00:08:05 49° NE 00:15:58 10° SE
Cosmos 1741 Rocket 4.5 00:05:05 10° N 00:09:56 38° ENE 00:14:44 10° SE
MOS 1 Rocket 3.5 00:05:00 10° SSE 00:10:18 76° ENE 00:15:24 10° N
Okean 3 4.0 00:08:20 10° SSE 00:12:01 34° E 00:15:41 10° NNE
Okean 2 3.3 00:08:43 10° S 00:12:29 56° E 00:16:16 10° NNE
Orbus 7S 4.1 00:11:11 10° WSW 00:13:04 19° S 00:14:25 10° SE
Cosmos 1850 Rocket 4.3 00:10:36 10° N 00:15:44 48° ENE 00:20:50 10° SE
SAR-Lupe-4 4.2 00:13:23 10° SE 00:16:37 34° ENE 00:19:53 10° N
Thor Agena Rocket 3.7 00:12:21 10° S 00:17:21 76° WSW 00:22:23 10° NNW
SL-8 Rocket 4.2 00:13:53 10° N 00:20:04 78° W 00:26:11 10° S
SPOT 1/Viking Rocket 3.9 00:15:26 10° SE 00:20:16 43° ENE 00:25:07 10° N
RESURS DK-1 3.2 00:22:08 10° SW 00:25:58 48° WNW 00:29:49 10° N
Cosmos 1833 Rocket 3.1 00:21:58 10° S 00:27:12 41° ESE 00:32:28 10° NE
Cosmos 1869 Rocket 4.2 00:25:37 10° NNE 00:29:34 33° E 00:33:29 10° SE
Resurs 1-3 4.2 00:29:26 10° SE 00:33:17 33° ENE 00:37:07 10° N
Cosmos 1992 Rocket 4.2 00:28:53 10° S 00:33:50 48° ESE 00:38:48 10° NNE
IRS-1C 4.5 00:34:14 10° S 00:39:31 71° WSW 00:44:50 10° NNW
Cosmos 292 Rocket 3.8 00:35:39 10° N 00:40:14 52° ENE 00:44:48 10° SSE
Cosmos 1953 4.0 00:40:45 10° NNW 00:44:07 34° W 00:47:27 10° SSW
Cosmos 1821 Rocket 4.0 00:39:10 10° N 00:45:20 85° W 00:51:24 10° S
Cosmos 1862 Rocket 4.3 00:44:04 10° SSE 00:47:56 30° E 00:51:22 12° NNE
Cosmos 1339 Rocket 4.4 00:45:30 10° S 00:51:38 64° E 00:57:40 10° NNE
Meteor 1-12 Rocket 4.4 00:46:33 10° N 00:52:11 77° W 00:57:50 10° S
Spot 4 Rocket 4.2 00:47:40 10° SSE 00:52:34 49° ENE 00:57:29 10° N
Aurora 2 Rocket 4.3 00:53:41 10° SW 00:55:19 13° SSW 00:56:56 10° SSE
CZ-2D R/B 3.2 00:54:21 10° SSE 00:58:09 61° ENE 01:01:55 10° N
YAOGAN 1 2.4 00:54:47 10° SSE 00:58:59 67° ENE 01:03:13 10° N
USA 305 2.4 00:57:05 10° SW 01:00:29 73° SE 01:02:21 29° NE
Meteor 2-15 Rocket 4.4 00:57:02 10° N 01:03:12 87° E 01:09:18 10° S
Cosmos 1340 Rocket 2.9 00:59:34 10° NNW 01:03:24 73° W 01:07:13 10° S
Cosmos 1707 Rocket 3.8 00:59:24 10° SSE 01:03:29 44° E 01:06:15 19° NNE
GRACE-FO 1 4.3 01:03:21 10° N 01:06:51 77° E 01:10:20 10° S
GRACE-FO 2 4.3 01:03:48 10° N 01:07:18 78° E 01:10:46 10° S
Cosmos 2360 4.1 01:09:22 10° NNW 01:15:02 64° ENE 01:20:40 10° SSE
Helios 1A Rocket 2.2 01:14:22 45° NNE 01:15:14 72° ESE 01:18:31 10° S
USA 215 3.4 01:12:33 16° NE 01:17:54 70° NW 01:24:23 10° SW
Okean 1-7 2.8 01:13:53 10° S 01:17:55 58° E 01:19:19 36° NNE
Cosmos 1934 Rocket 3.9 01:18:04 10° N 01:24:14 69° E 01:30:27 10° SSE
Cosmos 1656 3.6 01:18:40 10° NNW 01:24:14 82° WSW 01:29:41 10° SSE
Resurs 01 Rocket 1.5 01:22:24 10° SSE 01:26:40 56° ENE 01:30:56 10° N
Cosmos 2228 Rocket 2.9 01:26:54 10° S 01:31:21 74° E 01:32:43 44° NNE
IRAS Rocket 4.1 01:27:58 10° SSE 01:33:25 71° ENE 01:38:56 10° N
ARIANE 6 FM1 Upper Stage 4.2 01:31:44 10° S 01:33:48 24° SSE 01:33:48 24° SSE
Cosmos 1733 Rocket 2.8 01:34:13 10° N 01:38:35 81° E 01:42:54 10° S
Radarsat Rocket 4.4 01:36:09 10° S 01:42:36 66° WSW 01:48:32 10° NNW
DELTA 2 R/B (1) 4.1 01:39:37 10° W 01:44:56 45° N 01:45:44 42° NNE
CARTOSAT-1 4.1 01:43:32 10° S 01:47:39 55° W 01:51:46 10° NNW
BlueWalker 3 3.5 01:52:58 10° SW 01:55:01 31° WSW 01:55:01 31° WSW
Cosmos 1535 Rocket 4.4 01:56:29 10° N 02:02:53 88° E 02:09:11 10° S
Meteosat 1 Rocket2 4.0 01:59:24 10° WSW 02:02:22 42° SSW 02:02:22 42° SSW
Meteor 1-24 Rocket 3.6 01:58:22 10° S 02:03:54 85° W 02:04:24 75° NNW
Meteor 2-5 Rocket 3.7 01:59:18 10° S 02:04:01 67° S 02:04:01 67° S
Cosmos 2082 Rocket 3.3 02:01:41 10° S 02:04:36 31° S 02:04:36 31° S
Timation 1 Rocket 4.5 02:04:40 10° SSW 02:10:34 68° WNW 02:11:25 60° NNW
Cosmos 1697 Rocket 3.7 02:05:33 10° NNW 02:08:46 35° NNW 02:08:46 35° NNW
Cosmos 967 Rocket 4.4 02:09:05 10° NNW 02:15:34 82° WSW 02:15:50 80° SSW
Milstar 3 4.5 02:05:05 10° WSW 02:15:39 71° SSE 02:22:11 46° E
CZ-3 Stage 3 3.0 02:22:10 10° W 02:29:28 46° WSW 02:29:28 46° WSW
Atlas Centaur 2 4.2 10:25:24 21° E 10:25:24 21° E 10:27:33 10° E
CZ-3C R/B 3.8 10:28:07 26° SSE 10:28:07 26° SSE 10:40:33 10° ESE
BREEZE-M DEB (TANK) 4.2 10:51:47 79° ESE 10:51:47 79° ESE 11:06:09 10° NE
Cosmos 2278 Rocket 2.5 11:02:28 61° ENE 11:02:28 61° ENE 11:07:17 10° NNE
Cosmos 1833 Rocket 2.7 11:09:00 76° E 11:09:00 76° E 11:14:20 10° SSE
Cosmos 1943 Rocket 2.9 11:12:01 40° NNE 11:12:01 40° NNE 11:15:28 10° NNE
Cosmos 1140 Rocket 4.2 11:05:41 10° S 11:10:33 49° ESE 11:15:29 10° NNE
Tiangong 0.6 11:20:51 20° E 11:20:51 20° E 11:22:03 10° ENE
Lacrosse 4 Rocket 2.4 11:19:15 41° ESE 11:19:15 41° ESE 11:22:46 10° NE
OAO 1 Rocket 4.4 11:26:03 71° N 11:26:11 71° N 11:31:29 10° E
Delta 2 Rocket 4.1 11:34:23 40° ESE 11:34:23 40° ESE 11:36:53 10° E
SL-12 R/B(2) 4.0 11:30:34 16° SW 11:36:54 75° WNW 11:45:53 10° NNE
CZ-4 R/B 4.0 11:33:58 10° NNE 11:38:49 76° ESE 11:43:44 10° S
Cosmos 1805 Rocket 3.4 11:35:32 10° S 11:39:55 77° W 11:44:21 10° N
ARIANE 6 FM1 Upper Stage 3.2 11:41:18 44° S 11:41:18 44° S 11:44:21 10° SSE
ATLAS CENTAUR R/B 3.2 11:43:50 14° NNE 11:44:52 15° NE 11:46:43 10° E
Timation 2 Rocket 4.1 11:42:35 23° SW 11:46:40 53° WNW 11:52:57 10° N
Cosmos 1758 3.2 11:43:25 10° S 11:47:07 73° E 11:50:48 10° N
Cosmos 1500 Rocket 3.4 11:43:10 10° SSW 11:47:26 63° W 11:51:46 10° N
Okean 2 3.0 11:48:24 77° WNW 11:48:28 77° W 11:52:18 10° S
Okean 3 3.5 11:49:49 17° N 11:52:51 72° E 11:56:48 10° SSE
SKYMED 2 3.5 11:50:27 10° SSE 11:54:46 89° WSW 11:58:15 16° NNW
